Location: Erskine
(52.3216°N, 112.8806°W)
Time: 19:02:36
(UTC+00:00)

MOZHAYETS 4 - Pass Details

Date: 03 December 2023
Orbit: 654 x 672 km, 98.3° (Epoch: 03 March)

Event Time Altitude Azimuth Distance (km) Brightness Sun altitude
Rises 00:40:01 0° 8° (N) 3,033 10.8 -11.3°
Reaches altitude 10° 00:42:26 10° 359° (N) 2,117 10.1 -11.6°
Maximum altitude 00:46:30 32° 297° (WNW) 1,168 9.4 -12.2°
Drops below altitude 10° 00:50:34 10° 235° (SW) 2,108 11.6 -12.8°
Sets 00:52:58 0° 226° (SW) 3,018 12.4 -13.2°
